Date String (YYYY-MM-DD hh:mm:ss) UTC,Instrument flags,absolute air pressure of the measurement (hPa),sample flow rate (lpm),inlet stack bypass flow (lpm),air temperature of the measurement (°C),ambient temperature measured by the external sensor (°C),aerosol sample conditioner tube jacket temperature (°C),OPC LED temperature (°C),internal box temperature (°C),relative humidity of the measurement (%),span deviation,mass concentration of particles derived from Lorenz-Mie calculation of OPC scattering (μg/m³),mass concentration of particles derived from Lorenz-Mie calculation of OPC scattering (μg/m³),mass concentration of particles derived from Lorenz-Mie calculation of OPC scattering (μg/m³)
DateTimeUTC,F1_M11,P_M11,Q1_M11,Q2_M11,T1_M11,T2_M11,T3_M11,T4_M11,T5_M11,U1_M11,ZSPAN_M11,X0_M11,X2_M11,X1_M11
2024-05-06 23:00:00,SystemResetWarning,0813.6,5.00,000.00,021.8,021.3,000.0,029.9,023.5,012.5,0000.0,0001.27,0000.47,0000.17
2024-05-06 23:01:00,SystemResetWarning,0813.7,5.00,000.00,021.8,021.3,000.0,029.9,023.5,012.5,0000.0,0001.48,0000.47,0000.17
2024-05-06 23:02:00,SystemResetWarning,0813.9,5.00,000.00,021.8,021.3,000.0,029.9,023.5,012.8,0000.0,0001.84,0000.51,0000.17
2024-05-06 23:03:00,SystemResetWarning,0813.7,5.00,000.00,021.8,021.3,000.0,029.9,023.5,013.0,0000.0,0001.84,0000.51,0000.17
2024-05-06 23:04:00,SystemResetWarning,0813.5,5.00,000.00,021.8,021.3,000.0,029.9,023.6,012.8,0000.0,0001.90,0000.49,0000.17
2024-05-06 23:05:00,SystemResetWarning,0813.5,5.01,000.00,021.9,021.3,000.0,030.0,023.6,012.8,0000.0,0002.12,0000.50,0000.17
2024-05-06 23:06:00,SystemResetWarning,0814.0,5.01,000.00,021.9,021.3,000.0,030.0,023.6,012.9,0000.0,0002.23,0000.54,0000.17
2024-05-06 23:07:00,SystemResetWarning,0813.9,4.99,000.00,021.9,021.3,000.0,030.0,023.6,012.9,0000.0,0002.09,0000.55,0000.17
2024-05-06 23:08:00,SystemResetWarning,0814.1,4.99,000.00,021.9,021.3,000.0,030.0,023.5,012.9,0000.0,0001.99,0000.52,0000.18
2024-05-06 23:09:00,SystemResetWarning,0814.1,5.01,000.00,021.9,021.3,000.0,030.0,023.6,012.7,0000.0,0002.06,0000.53,0000.18
2024-05-06 23:10:00,SystemResetWarning,0813.9,5.01,000.00,021.9,021.3,000.0,030.0,023.6,012.8,0000.0,0002.35,0000.53,0000.18
2024-05-06 23:11:00,SystemResetWarning,0813.8,5.00,000.00,021.9,021.3,000.0,030.0,023.6,012.5,0000.0,0002.32,0000.51,0000.17
2024-05-06 23:12:00,SystemResetWarning,0814.0,4.99,000.00,021.9,021.3,000.0,030.0,023.6,012.5,0000.0,0002.17,0000.52,0000.17
2024-05-06 23:13:00,SystemResetWarning,0814.2,4.99,000.00,021.9,021.3,000.0,030.0,023.6,012.4,0000.0,0001.79,0000.47,0000.17
2024-05-06 23:14:00,SystemResetWarning,0814.3,5.00,000.00,021.9,021.3,000.0,030.0,023.6,012.5,0000.0,0001.87,0000.49,0000.17
2024-05-06 23:15:00,SystemResetWarning,0814.2,5.00,000.00,021.9,021.3,000.0,030.0,023.6,012.7,0000.0,0001.83,0000.50,0000.17
2024-05-06 23:16:00,SystemResetWarning,0814.1,5.00,000.00,021.9,021.3,000.0,030.0,023.6,012.7,0000.0,0001.58,0000.51,0000.17
2024-05-06 23:17:00,SystemResetWarning,0814.0,5.00,000.00,021.9,021.3,000.0,030.0,023.6,012.6,0000.0,0001.58,0000.48,0000.17
2024-05-06 23:18:00,SystemResetWarning,0814.0,5.00,000.00,021.9,021.3,000.0,030.0,023.6,012.8,0000.0,0001.62,0000.50,0000.17
2024-05-06 23:19:00,SystemResetWarning,0813.9,5.01,000.00,021.9,021.3,000.0,030.0,023.6,012.9,0000.0,0001.68,0000.50,0000.16
2024-05-06 23:20:00,SystemResetWarning,0814.3,5.00,000.00,021.9,021.3,000.0,030.0,023.6,013.0,0000.0,0001.72,0000.52,0000.17
2024-05-06 23:21:00,SystemResetWarning,0814.3,5.00,000.00,021.9,021.3,000.0,030.0,023.6,013.2,0000.0,0003.87,0000.51,0000.17
2024-05-06 23:22:00,SystemResetWarning,0814.2,5.00,000.00,021.9,021.3,000.0,030.0,023.6,013.3,0000.0,0004.56,0000.52,0000.18
2024-05-06 23:23:00,SystemResetWarning,0813.9,4.99,000.00,021.9,021.3,000.0,030.1,023.6,013.3,0000.0,0004.43,0000.48,0000.17
2024-05-06 23:24:00,SystemResetWarning,0814.0,5.00,000.00,022.0,021.3,000.0,030.1,023.6,012.9,0000.0,0004.43,0000.48,0000.17
2024-05-06 23:25:00,SystemResetWarning,0813.9,5.02,000.00,022.0,021.4,000.0,030.1,023.6,013.1,0000.0,0004.39,0000.47,0000.18
2024-05-06 23:26:00,SystemResetWarning,0813.9,5.00,000.00,022.0,021.4,000.0,030.1,023.6,013.3,0000.0,0004.32,0000.44,0000.17
2024-05-06 23:27:00,SystemResetWarning,0813.9,4.99,000.00,022.0,021.4,000.0,030.1,023.6,013.4,0000.0,0004.28,0000.42,0000.17
2024-05-06 23:28:00,SystemResetWarning,0814.1,5.00,000.00,022.0,021.4,000.0,030.1,023.6,013.3,0000.0,0004.25,0000.42,0000.16
2024-05-06 23:29:00,SystemResetWarning,0814.1,5.01,000.00,022.0,021.4,000.0,030.1,023.7,013.4,0000.0,0004.24,0000.42,0000.16
2024-05-06 23:30:00,SystemResetWarning,0814.2,5.01,000.00,022.0,021.4,000.0,030.1,023.7,013.5,0000.0,0004.12,0000.39,0000.17
2024-05-06 23:31:00,SystemResetWarning,0814.3,5.00,000.00,022.0,021.5,000.0,030.1,023.7,013.5,0000.0,0004.06,0000.38,0000.17
2024-05-06 23:32:00,SystemResetWarning,0814.3,5.00,000.00,022.0,021.5,000.0,030.1,023.7,013.1,0000.0,0003.24,0000.37,0000.16
2024-05-06 23:33:00,SystemResetWarning,0814.3,5.00,000.00,022.0,021.5,000.0,030.1,023.7,013.1,0000.0,0000.96,0000.40,0000.17
2024-05-06 23:34:00,SystemResetWarning,0814.4,4.99,000.00,022.1,021.5,000.0,030.2,023.8,013.1,0000.0,0001.06,0000.42,0000.17
2024-05-06 23:35:00,SystemResetWarning,0814.5,5.00,000.00,022.1,021.5,000.0,030.2,023.8,013.4,0000.0,0003.02,0000.43,0000.17
2024-05-06 23:36:00,SystemResetWarning,0814.3,5.01,000.00,022.1,021.5,000.0,030.2,023.8,013.3,0000.0,0003.64,0000.45,0000.17
2024-05-06 23:37:00,SystemResetWarning,0814.3,5.00,000.00,022.1,021.5,000.0,030.2,023.8,012.9,0000.0,0003.71,0000.49,0000.17
2024-05-06 23:38:00,SystemResetWarning,0814.3,4.99,000.00,022.1,021.5,000.0,030.2,023.8,013.1,0000.0,0003.75,0000.51,0000.17
2024-05-06 23:39:00,SystemResetWarning,0814.0,5.00,000.00,022.1,021.5,000.0,030.2,023.8,013.2,0000.0,0003.81,0000.52,0000.17
2024-05-06 23:40:00,SystemResetWarning,0814.3,4.99,000.00,022.1,021.5,000.0,030.2,023.8,013.1,0000.0,0003.81,0000.52,0000.17
2024-05-06 23:41:00,SystemResetWarning,0814.1,5.00,000.00,022.1,021.5,000.0,030.2,023.8,013.1,0000.0,0003.79,0000.52,0000.17
2024-05-06 23:42:00,SystemResetWarning,0813.4,5.01,000.00,022.1,021.5,000.0,030.2,023.8,013.0,0000.0,0003.92,0000.53,0000.17
2024-05-06 23:43:00,SystemResetWarning,0813.6,5.01,000.00,022.1,021.5,000.0,030.3,023.8,013.0,0000.0,0004.54,0000.60,0000.17
2024-05-06 23:44:00,SystemResetWarning,0813.7,5.00,000.00,022.1,021.5,000.0,030.3,023.8,013.3,0000.0,0004.50,0000.59,0000.17
2024-05-06 23:45:00,SystemResetWarning,0813.9,5.00,000.00,022.1,021.5,000.0,030.3,023.8,013.4,0000.0,0004.39,0000.57,0000.17
2024-05-06 23:46:00,SystemResetWarning,0814.0,4.99,000.00,022.1,021.4,000.0,030.3,023.8,013.2,0000.0,0002.79,0000.58,0000.16
2024-05-06 23:47:00,SystemResetWarning,0813.8,4.99,000.00,022.1,021.4,000.0,030.3,023.8,013.3,0000.0,0001.81,0000.57,0000.17
2024-05-06 23:48:00,SystemResetWarning,0813.8,4.99,000.00,022.1,021.4,000.0,030.3,023.8,013.4,0000.0,0001.75,0000.54,0000.16
2024-05-06 23:49:00,SystemResetWarning,0813.9,5.00,000.00,022.1,021.4,000.0,030.3,023.8,013.5,0000.0,0002.02,0000.56,0000.17
2024-05-06 23:50:00,SystemResetWarning,0813.8,5.01,000.00,022.1,021.4,000.0,030.3,023.8,013.9,0000.0,0002.03,0000.57,0000.17
2024-05-06 23:51:00,SystemResetWarning,0813.6,5.00,000.00,022.1,021.4,000.0,030.3,023.8,014.0,0000.0,0003.77,0000.58,0000.17
2024-05-06 23:52:00,SystemResetWarning,0813.9,5.01,000.00,022.1,021.4,000.0,030.3,023.8,013.8,0000.0,0004.22,0000.61,0000.16
2024-05-06 23:53:00,SystemResetWarning,0814.0,4.99,000.00,022.1,021.4,000.0,030.3,023.7,013.6,0000.0,0004.32,0000.64,0000.16
2024-05-06 23:54:00,SystemResetWarning,0814.2,4.99,000.00,022.1,021.4,000.0,030.3,023.8,013.4,0000.0,0003.97,0000.60,0000.16
2024-05-06 23:55:00,SystemResetWarning,0814.1,5.00,000.00,022.1,021.4,000.0,030.3,023.8,013.4,0000.0,0004.26,0000.61,0000.16
2024-05-06 23:56:00,SystemResetWarning,0814.2,5.00,000.00,022.1,021.4,000.0,030.3,023.8,013.7,0000.0,0004.37,0000.63,0000.17
2024-05-06 23:57:00,SystemResetWarning,0814.3,5.01,000.00,022.1,021.3,000.0,030.3,023.7,013.7,0000.0,0004.36,0000.63,0000.17
2024-05-06 23:58:00,SystemResetWarning,0814.2,5.00,000.00,022.1,021.3,000.0,030.3,023.7,013.7,0000.0,0004.33,0000.62,0000.17
2024-05-06 23:59:00,SystemResetWarning,0814.3,4.99,000.00,022.1,021.3,000.0,030.2,023.7,013.9,0000.0,0004.35,0000.62,0000.17
